Location: BGSU Observatory
(41.3799°N, 83.6397°W)
Time: 15:49:55
(UTC-04:00)

Amateur Radio Satellites - All Passes

Search period start: 27 May 2015 15:19
Search period end: 28 May 2015 15:19
Location: BGSU Observatory, 41.3799°N, 83.6397°W

Satellite Date Start Highest point End Downlink Frequencies (MHz)
Time Altitude Azimuth
JAS-2 27 May 15:26:43 15:31:59 28° 67° (ENE) 15:36:56 435.910
Oscar 19 27 May 15:36:08 15:39:32 17° 270° (W) 15:42:44 437.125/150
CUSAT 1 27 May 15:43:47 15:49:43 22° 300° (WNW) 15:55:44 437.405
GONETS M04 27 May 15:45:08 15:52:55 32° 292° (WNW) 16:00:34
ITAMSAT 1 27 May 15:49:21 15:54:13 40° 262° (W) 15:59:04 435.822/435.867
HORYU 2 27 May 15:52:15 15:56:20 36° 70° (ENE) 16:00:28 437.375
ITUPSAT 1 27 May 15:58:34 16:03:10 47° 288° (WNW) 16:07:44 437.325
KKS-1 27 May 16:01:10 16:05:17 35° 97° (E) 16:09:24 437.445
BEESAT 27 May 16:06:03 16:10:30 39° 290° (WNW) 16:14:53 436.000
O/OREOS (USA 219) 27 May 16:09:14 16:13:32 45° 107° (ESE) 16:17:51 437.305
SWISSCUBE 27 May 16:14:52 16:19:02 30° 292° (WNW) 16:23:08 437.505
Gurwin Techsat 1B 27 May 16:31:49 16:35:35 19° 270° (W) 16:39:11 435.225
Cosmos 2499 27 May 16:42:58 16:51:00 60° 282° (WNW) 16:58:26 435.465 / 435.565
STARS 27 May 17:03:48 17:08:16 77° 284° (WNW) 17:12:39 437.465
AO-7 27 May 17:05:47 17:14:01 66° 256° (WSW) 17:22:18 29.400- 29.500
JAS-2 27 May 17:10:27 17:16:57 49° 261° (W) 17:22:42 435.910
HORYU 2 27 May 17:29:37 17:33:07 21° 267° (W) 17:36:30 437.375
RS-15 27 May 17:32:05 17:42:57 45° 41° (NE) 17:54:23 29.354- 29.394
YUBILEINY 27 May 17:34:06 17:38:19 15° 56° (NE) 17:43:06 435.215
MOZHAYETS 4 27 May 17:34:18 17:38:17 29° 95° (E) 17:42:18
KKS-1 27 May 17:38:13 17:41:44 22° 293° (WNW) 17:45:09 437.445
O/OREOS (USA 219) 27 May 17:49:56 17:53:14 19° 306° (NW) 17:56:25 437.305
BEESAT 3 27 May 17:59:56 18:03:05 22° 113° (ESE) 18:06:19 437.485
CUTE-I 27 May 18:06:48 18:11:11 28° 66° (ENE) 18:15:42 437.470
Cubesat XI-IV 27 May 18:26:56 18:31:52 42° 70° (ENE) 18:36:54 437.490
AIST 2 27 May 18:44:24 18:46:54 16° 111° (ESE) 18:49:35 435.215
BEESAT 2 27 May 18:48:34 18:52:36 61° 120° (ESE) 18:56:42 435.950
AO-7 27 May 19:06:19 19:08:40 11° 277° (W) 19:10:14 29.400- 29.500
MOZHAYETS 4 27 May 19:11:34 19:15:28 27° 291° (WNW) 19:19:16
STRAND 1 27 May 19:14:00 19:15:13 11° 86° (E) 19:16:48 437.568
CUBESAT XI-V 27 May 19:14:49 19:18:50 28° 94° (E) 19:22:54 437.345
YUBILEINY 27 May 19:28:24 19:37:07 73° 80° (E) 19:45:48 435.215
Cosmos 2491 27 May 19:32:34 19:40:27 40° 87° (E) 19:48:32 435.465 / 435.565
BEESAT 3 27 May 19:37:07 19:40:53 35° 310° (NW) 19:44:41 437.485
RS-15 27 May 19:44:36 19:56:03 63° 245° (WSW) 20:07:52 29.354- 29.394
CUTE-I 27 May 19:46:11 19:51:07 38° 263° (W) 19:56:04 437.470
GOMX 1 27 May 20:01:12 20:04:55 21° 64° (ENE) 20:08:55 467.674
BRITE-PL 27 May 20:01:26 20:05:52 31° 67° (ENE) 20:10:40 437.365/2234.400
Cubesat XI-IV 27 May 20:07:48 20:12:11 25° 267° (W) 20:16:27 437.490
Cosmos 2504 27 May 20:17:08 20:19:55 13° 58° (ENE) 20:23:10 435.465 / 435.565
PRISM 27 May 20:19:42 20:23:48 57° 101° (E) 20:27:55 437.425
AIST 2 27 May 20:20:56 20:25:06 52° 306° (NW) 20:29:18 435.215
BEESAT 2 27 May 20:28:21 20:31:06 17° 318° (NW) 20:33:46 435.950
CINEMA 3 27 May 20:32:26 20:34:39 13° 62° (ENE) 20:37:07 145.822/145.860
M-CUBED/EXP-1 PRIME 27 May 20:37:15 20:39:59 24° 101° (E) 20:42:46 437.505
HO-68 27 May 20:43:56 20:50:46 50° 67° (ENE) 20:57:39 435.675
AUBIESAT-1 27 May 20:44:38 20:47:26 25° 101° (ESE) 20:50:17 437.475
STRAND 1 27 May 20:50:01 20:55:11 85° 287° (WNW) 21:00:22 437.568
CUBESAT XI-V 27 May 20:52:08 20:56:16 30° 290° (WNW) 21:00:19 437.345
DOVE 4 27 May 20:56:58 21:01:48 43° 71° (ENE) 21:06:51 437.250
CANX-2 27 May 21:11:22 21:15:33 59° 75° (ENE) 21:19:45 2200.000
CUTE 1.7 + AOD 2 27 May 21:14:48 21:18:59 58° 75° (ENE) 21:23:10 437.475
CUBEBUG 2 27 May 21:17:48 21:20:56 18° 66° (ENE) 21:24:13 437.445
ZACube-1 27 May 21:18:09 21:19:19 11° 63° (ENE) 21:20:44 437.345
Oscar 11 27 May 21:26:35 21:29:49 22° 68° (ENE) 21:33:11 145.826/435.025
YUBILEINY 27 May 21:26:39 21:33:10 23° 278° (W) 21:39:20 435.215
AIST 1 27 May 21:27:35 21:31:49 74° 96° (E) 21:36:06
Cosmos 2491 27 May 21:28:54 21:37:17 45° 287° (WNW) 21:45:38 435.465 / 435.565
SEEDS 27 May 21:36:06 21:40:20 83° 77° (ENE) 21:44:34 437.485
GOMX 1 27 May 21:37:33 21:42:36 55° 262° (W) 21:47:56 467.674
BRITE-PL 27 May 21:39:36 21:44:17 35° 266° (W) 21:49:15 437.365/2234.400
COMPASS 1 27 May 21:48:04 21:52:16 89° 251° (WSW) 21:56:28 437.405
PRISM 27 May 21:56:50 21:58:50 13° 296° (WNW) 22:00:41 437.425
AAUSAT CUBESAT 2 27 May 21:59:32 22:03:43 77° 258° (WSW) 22:07:53 437.432
RS-15 27 May 22:01:54 22:06:39 12° 262° (W) 22:10:12 29.354- 29.394
UWE-3 27 May 22:02:04 22:06:24 39° 71° (ENE) 22:10:45 435.000/436.395/437.385
CINEMA 3 27 May 22:06:13 22:11:13 81° 259° (W) 22:16:18 145.822/145.860
Cosmos 2504 27 May 22:07:37 22:14:51 78° 81° (E) 22:22:05 435.465 / 435.565
FUNcube-1 27 May 22:10:04 22:14:14 36° 71° (ENE) 22:18:26 145.935
M-CUBED/EXP-1 PRIME 27 May 22:12:29 22:14:46 17° 297° (WNW) 22:16:59 437.505
AISAT 27 May 22:17:04 22:18:36 12° 62° (ENE) 22:20:22 437.250
AUBIESAT-1 27 May 22:19:56 22:22:07 16° 297° (WNW) 22:24:14 437.475
DELFI C3 27 May 22:21:24 22:25:22 60° 75° (ENE) 22:29:20 145.870
STRAND 1 27 May 22:31:57 22:33:42 11° 301° (WNW) 22:35:10 437.568
HO-68 27 May 22:32:25 22:38:45 32° 265° (W) 22:45:00 435.675
DOVE 4 27 May 22:35:36 22:39:46 24° 269° (W) 22:43:55 437.250
HUMSAT D 27 May 22:38:27 22:42:18 33° 71° (ENE) 22:46:12 437.325/437.525
CANX-2 27 May 22:50:14 22:51:56 12° 272° (W) 22:53:23 2200.000
ZACube-1 27 May 22:50:29 22:55:06 83° 259° (WSW) 22:59:41 437.345
UKube-1 27 May 22:51:02 22:55:09 46° 72° (ENE) 22:59:20 .
CUBEBUG 2 27 May 22:52:36 22:57:16 52° 261° (W) 23:01:55 437.445
CUTE 1.7 + AOD 2 27 May 22:53:34 22:55:20 12° 272° (W) 22:56:53 437.475
CUSAT 1 27 May 22:58:54 23:01:25 12° 51° (NE) 23:04:09 437.405
DX 1 27 May 23:00:52 23:05:10 65° 74° (ENE) 23:09:31 434.975-435.025
Oscar 11 27 May 23:01:52 23:05:50 34° 264° (W) 23:09:47 145.826/435.025
UNISAT 6 27 May 23:05:45 23:07:51 14° 89° (E) 23:10:08 437.425
CUBEBUG 1 27 May 23:15:05 23:18:29 23° 67° (ENE) 23:21:58 437.445
VELOX 1 27 May 23:18:26 23:22:41 48° 73° (ENE) 23:27:01 145.980
50 SAT 27 May 23:22:30 23:26:25 57° 75° (ENE) 23:30:22 437.505
ESTCUBE 1 27 May 23:25:02 23:29:02 34° 70° (ENE) 23:33:06 437.505/2401.250
NANOSAT C BR1 27 May 23:29:30 23:29:57 10° 87° (E) 23:30:41 145.865
QB50P2 27 May 23:36:46 23:38:49 14° 89° (E) 23:41:04 145.880/145.840
UWE-3 27 May 23:39:25 23:43:04 22° 268° (W) 23:46:37 435.000/436.395/437.385
FUNcube-1 27 May 23:47:02 23:50:41 22° 267° (W) 23:54:12 145.935
ANTELSAT 27 May 23:47:35 23:51:41 39° 97° (E) 23:55:44 437.575/2403.000
POPSAT HIP 1 27 May 23:48:09 23:51:01 18° 91° (E) 23:53:59 437.405
DUCHIFAT 1 27 May 23:49:20 23:52:11 18° 92° (E) 23:55:09 145.980
AISAT 27 May 23:50:12 23:54:39 74° 258° (WSW) 23:59:08 437.250
SPROUT 27 May 23:51:23 23:53:56 16° 65° (ENE) 23:56:40 437.525
ISS 27 May 23:53:54 23:57:01 47° 140° (SE) 00:00:11 145.825
GONETS M04 27 May 23:57:41 00:04:52 28° 66° (ENE) 00:12:14
DELFI C3 28 May 00:00:10 00:00:56 10° 272° (W) 00:01:27 145.870
Cosmos 2504 28 May 00:02:59 00:07:27 17° 279° (W) 00:11:32 435.465 / 435.565
BUGSAT 1 28 May 00:08:10 00:11:16 20° 92° (E) 00:14:29 437.445
TISAT 1 28 May 00:10:44 00:13:39 19° 66° (ENE) 00:16:40 437.305
DANDE 28 May 00:13:33 00:20:42 37° 67° (ENE) 00:26:34 436.750
HUMSAT D 28 May 00:14:44 00:18:08 22° 267° (W) 00:21:25 437.325/437.525
TIGRISAT 28 May 00:19:48 00:24:13 88° 102° (ESE) 00:28:30 435.000
UKube-1 28 May 00:28:53 00:31:35 16° 269° (W) 00:34:08 .
QB50P1 28 May 00:31:06 00:35:19 54° 100° (E) 00:39:30 145.935-145.965
POLYITAN 1 28 May 00:33:37 00:37:52 59° 100° (E) 00:42:03 437.675
CUSAT 1 28 May 00:38:54 00:46:07 69° 76° (ENE) 00:51:39 437.405
DX 1 28 May 00:40:25 00:41:56 11° 272° (W) 00:43:12 434.975-435.025
UNISAT 6 28 May 00:40:47 00:45:04 52° 287° (WNW) 00:49:14 437.425
O/OREOS (USA 219) 28 May 00:42:17 00:43:12 11° 48° (NE) 00:44:21 437.305
CUBEBUG 1 28 May 00:50:44 00:54:42 33° 264° (W) 00:58:39 437.445
VELOX 1 28 May 00:56:49 00:59:35 16° 270° (W) 01:02:12 145.980
50 SAT 28 May 01:00:28 01:01:33 11° 271° (W) 01:02:25 437.505
NANOSAT C BR1 28 May 01:02:05 01:06:21 68° 285° (WNW) 01:10:34 145.865
ESTCUBE 1 28 May 01:02:25 01:06:00 23° 267° (W) 01:09:30 437.505/2401.250
QB50P2 28 May 01:10:54 01:15:05 52° 287° (WNW) 01:19:13 145.880/145.840
VERMONT LUNAR 28 May 01:17:18 01:18:13 11° 148° (SSE) 01:19:15 437.305
POPSAT HIP 1 28 May 01:23:04 01:27:06 39° 288° (WNW) 01:31:03 437.405
DUCHIFAT 1 28 May 01:24:12 01:28:12 39° 288° (WNW) 01:32:08 145.980
ANTELSAT 28 May 01:25:04 01:28:13 19° 294° (WNW) 01:31:12 437.575/2403.000
SPROUT 28 May 01:25:29 01:29:40 49° 261° (W) 01:33:54 437.525
PCSat 28 May 01:27:39 01:32:57 61° 115° (ESE) 01:38:19 145.827
ITUPSAT 1 28 May 01:28:45 01:32:22 23° 66° (ENE) 01:36:06 437.325
ISS 28 May 01:30:45 01:33:35 26° 337° (NNW) 01:36:24 145.825
BEESAT 28 May 01:35:28 01:39:22 26° 68° (ENE) 01:43:22 436.000
BUGSAT 1 28 May 01:42:57 01:46:52 35° 289° (WNW) 01:50:43 437.445
SWISSCUBE 28 May 01:43:44 01:47:58 34° 69° (ENE) 01:52:17 437.505
TISAT 1 28 May 01:45:09 01:49:09 39° 262° (W) 01:53:11 437.305
GONETS M04 28 May 01:53:48 02:02:30 65° 267° (W) 02:11:02
DANDE 28 May 01:56:52 02:04:02 41° 272° (W) 02:09:43 436.750
Oscar 19 28 May 02:07:01 02:10:45 21° 91° (E) 02:14:37 437.125/150
QB50P1 28 May 02:08:24 02:10:47 14° 295° (WNW) 02:12:59 145.935-145.965
POLYITAN 1 28 May 02:11:10 02:13:20 13° 296° (WNW) 02:15:17 437.675
BEESAT 3 28 May 02:18:19 02:21:03 17° 42° (NE) 02:23:51 437.485
O/OREOS (USA 219) 28 May 02:18:55 02:23:25 89° 72° (ENE) 02:27:53 437.305
CUSAT 1 28 May 02:23:09 02:27:47 19° 280° (W) 02:31:32 437.405
Cosmos 2499 28 May 02:33:51 02:40:34 46° 75° (ENE) 02:47:25 435.465 / 435.565
VERMONT LUNAR 28 May 02:51:53 02:54:56 40° 162° (SSE) 02:57:59 437.305
KKS-1 28 May 02:59:24 03:03:24 33° 70° (ENE) 03:07:27 437.445
AIST 2 28 May 03:05:20 03:07:38 14° 39° (NE) 03:10:02 435.215
ITUPSAT 1 28 May 03:05:35 03:10:03 39° 263° (W) 03:14:31 437.325
Gurwin Techsat 1B 28 May 03:06:54 03:10:51 22° 92° (E) 03:14:57 435.225
BEESAT 2 28 May 03:07:50 03:11:41 38° 51° (NE) 03:15:30 435.950
ISS 28 May 03:09:03 03:10:49 14° 357° (N) 03:12:36 145.825
PCSat 28 May 03:12:33 03:16:50 23° 315° (NW) 03:21:03 145.827
BEESAT 28 May 03:12:49 03:17:07 33° 264° (W) 03:21:23 436.000
SWISSCUBE 28 May 03:21:58 03:25:55 25° 266° (W) 03:29:47 437.505
SO-50 28 May 03:24:25 03:28:43 38° 116° (ESE) 03:33:13 436.795
PHONESAT 2.4 28 May 03:33:15 03:36:20 29° 157° (SSE) 03:39:25 2401.200-2431.200
Oscar 19 28 May 03:45:27 03:50:25 48° 289° (WNW) 03:55:19 437.125/150
BEESAT 3 28 May 03:55:24 03:59:24 55° 241° (WSW) 04:03:18 437.485
GONETS M04 28 May 03:55:35 03:57:46 11° 285° (WNW) 03:59:11
STARS 28 May 04:00:25 04:04:52 87° 259° (W) 04:09:21 437.465
ITAMSAT 1 28 May 04:01:36 04:06:50 73° 102° (ESE) 04:12:04 435.822/435.867
JAS-2 28 May 04:20:22 04:23:46 18° 91° (E) 04:27:25 435.910
Cosmos 2499 28 May 04:27:29 04:33:29 30° 273° (W) 04:39:24 435.465 / 435.565
VERMONT LUNAR 28 May 04:28:47 04:31:59 78° 180° (S) 04:35:12 437.305
MOZHAYETS 4 28 May 04:36:28 04:40:21 28° 69° (ENE) 04:44:18
KKS-1 28 May 04:36:28 04:40:07 23° 267° (W) 04:43:40 437.445
AIST 2 28 May 04:42:34 04:46:48 79° 239° (WSW) 04:50:57 435.215
ISS 28 May 04:45:42 04:48:10 19° 17° (NNE) 04:50:39 145.825
Gurwin Techsat 1B 28 May 04:46:02 04:51:08 48° 289° (WNW) 04:56:13 435.225
BEESAT 2 28 May 04:46:29 04:49:33 20° 248° (WSW) 04:52:29 435.950
SO-50 28 May 05:05:13 05:09:22 29° 315° (NW) 05:13:36 436.795
AO-7 28 May 05:07:18 05:15:09 43° 99° (E) 05:23:03 29.400- 29.500
PHONESAT 2.4 28 May 05:10:44 05:14:12 71° 173° (S) 05:17:40 2401.200-2431.200
HORYU 2 28 May 05:19:28 05:23:54 73° 102° (ESE) 05:28:19 437.375
ITAMSAT 1 28 May 05:42:43 05:45:49 16° 298° (WNW) 05:48:42 435.822/435.867
Cosmos 2491 28 May 05:43:12 05:49:05 20° 60° (ENE) 05:55:21 435.465 / 435.565
JAS-2 28 May 06:04:18 06:09:20 51° 288° (WNW) 06:14:29 435.910
VERMONT LUNAR 28 May 06:05:58 06:09:05 49° 195° (SSW) 06:12:11 437.305
MOZHAYETS 4 28 May 06:13:35 06:17:33 28° 265° (W) 06:21:27
CUBESAT XI-V 28 May 06:18:30 06:22:21 27° 69° (ENE) 06:26:18 437.345
ISS 28 May 06:21:41 06:24:58 86° 42° (NE) 06:28:14 145.825
STRAND 1 28 May 06:29:03 06:32:20 18° 63° (ENE) 06:35:47 437.568
YUBILEINY 28 May 06:37:26 06:41:53 16° 78° (ENE) 06:46:53 435.215
Cubesat XI-IV 28 May 06:45:11 06:48:23 16° 89° (E) 06:51:50 437.490
PHONESAT 2.4 28 May 06:48:49 06:52:15 67° 191° (S) 06:55:42 2401.200-2431.200
HORYU 2 28 May 06:58:18 07:00:01 12° 298° (WNW) 07:01:30 437.375
AO-7 28 May 07:00:10 07:07:59 45° 297° (WNW) 07:15:43 29.400- 29.500
PRISM 28 May 07:09:53 07:13:43 41° 72° (ENE) 07:17:36 437.425
M-CUBED/EXP-1 PRIME 28 May 07:25:00 07:28:56 41° 68° (ENE) 07:32:36 437.505
AUBIESAT-1 28 May 07:31:58 07:35:52 43° 68° (ENE) 07:39:31 437.475
AIST 1 28 May 07:35:24 07:38:28 19° 70° (ENE) 07:41:40
Cosmos 2491 28 May 07:38:31 07:47:25 89° 263° (W) 07:56:13 435.465 / 435.565
VERMONT LUNAR 28 May 07:43:58 07:45:51 14° 210° (SSW) 07:47:40 437.305
CUBESAT XI-V 28 May 07:55:41 07:59:43 29° 265° (W) 08:03:45 437.345
RS-15 28 May 08:00:13 08:07:11 21° 102° (ESE) 08:14:53 29.354- 29.394
ISS 28 May 08:00:14 08:00:58 10° 230° (SW) 08:01:33 145.825
CUTE-I 28 May 08:02:37 08:08:01 84° 104° (ESE) 08:13:24 437.470
STRAND 1 28 May 08:06:06 08:11:07 59° 260° (W) 08:16:10 437.568
BRITE-PL 28 May 08:09:07 08:10:03 11° 83° (E) 08:11:23 437.365/2234.400
Cubesat XI-IV 28 May 08:23:42 08:29:01 64° 287° (WNW) 08:34:19 437.490
PHONESAT 2.4 28 May 08:27:11 08:30:05 25° 205° (SSW) 08:32:58 2401.200-2431.200
YUBILEINY 28 May 08:28:46 08:37:32 84° 96° (E) 08:46:19 435.215
PCSat 28 May 08:35:07 08:35:53 10° 33° (NNE) 08:36:52 145.827
PRISM 28 May 08:46:53 08:49:25 15° 269° (W) 08:51:48 437.425
AO-7 28 May 08:57:56 08:58:48 10° 318° (NW) 08:59:10 29.400- 29.500
DOVE 4 28 May 08:58:45 09:00:26 12° 85° (E) 09:02:24 437.250
Cosmos 2504 28 May 08:59:19 09:00:41 11° 78° (ENE) 09:02:42 435.465 / 435.565
M-CUBED/EXP-1 PRIME 28 May 09:01:15 09:03:55 16° 262° (W) 09:06:20 437.505
AUBIESAT-1 28 May 09:08:18 09:10:48 15° 262° (W) 09:13:04 437.475
AIST 1 28 May 09:12:15 09:16:18 37° 268° (W) 09:20:20
SEEDS 28 May 09:22:02 09:24:03 14° 89° (E) 09:26:16 437.485
COMPASS 1 28 May 09:32:56 09:35:08 14° 90° (E) 09:37:30 437.405
Cosmos 2491 28 May 09:37:39 09:43:10 18° 281° (WNW) 09:48:08 435.465 / 435.565
GOMX 1 28 May 09:39:44 09:44:57 50° 97° (E) 09:49:52 467.674
AAUSAT CUBESAT 2 28 May 09:43:36 09:46:09 16° 91° (E) 09:48:50 437.432
BRITE-PL 28 May 09:43:53 09:49:35 84° 101° (ESE) 09:54:58 437.365/2234.400
CUTE-I 28 May 09:44:40 09:47:28 14° 300° (WNW) 09:50:01 437.470
HO-68 28 May 09:58:49 10:05:44 51° 100° (E) 10:12:39 435.675
CINEMA 3 28 May 10:02:17 10:06:04 24° 92° (E) 10:09:47 145.822/145.860
UNISAT 6 28 May 10:04:56 10:07:28 15° 64° (ENE) 10:10:10 437.425
RS-15 28 May 10:07:14 10:18:09 88° 119° (ESE) 10:29:23 29.354- 29.394
PCSat 28 May 10:15:29 10:20:45 49° 55° (NE) 10:26:00 145.827
YUBILEINY 28 May 10:29:10 10:35:39 21° 299° (WNW) 10:41:45 435.215
QB50P2 28 May 10:30:55 10:32:19 12° 63° (ENE) 10:33:56 145.880/145.840
CANX-2 28 May 10:32:19 10:36:31 68° 285° (WNW) 10:40:42 2200.000
DOVE 4 28 May 10:33:50 10:38:58 76° 285° (WNW) 10:43:47 437.250
CUTE 1.7 + AOD 2 28 May 10:35:39 10:39:51 69° 285° (WNW) 10:44:02 437.475
ZACube-1 28 May 10:40:23 10:43:19 18° 91° (E) 10:46:21 437.345
POPSAT HIP 1 28 May 10:41:47 10:44:08 15° 65° (ENE) 10:46:40 437.405
DUCHIFAT 1 28 May 10:42:35 10:44:52 15° 65° (ENE) 10:47:21 145.980
CUBEBUG 2 28 May 10:44:14 10:48:14 32° 96° (E) 10:52:07 437.445
Cosmos 2504 28 May 10:44:44 10:52:57 68° 94° (E) 11:00:40 435.465 / 435.565
ANTELSAT 28 May 10:46:17 10:50:35 38° 71° (ENE) 10:54:53 437.575/2403.000
Oscar 11 28 May 10:48:47 10:52:50 40° 97° (E) 10:56:54 145.826/435.025
DX 1 28 May 10:51:41 10:52:46 11° 88° (E) 10:54:07 434.975-435.025
SEEDS 28 May 10:56:09 11:00:12 49° 286° (WNW) 11:04:13 437.485
BUGSAT 1 28 May 10:59:11 11:01:30 15° 65° (ENE) 11:04:00 437.445
COMPASS 1 28 May 11:07:07 11:11:07 45° 287° (WNW) 11:15:04 437.405
TIGRISAT 28 May 11:17:59 11:22:40 78° 76° (ENE) 11:27:19 435.000
AAUSAT CUBESAT 2 28 May 11:18:06 11:21:59 40° 288° (WNW) 11:25:51 437.432
GOMX 1 28 May 11:18:35 11:22:41 22° 295° (WNW) 11:26:30 467.674
QB50P1 28 May 11:23:47 11:27:47 41° 72° (ENE) 11:31:51 145.935-145.965
BRITE-PL 28 May 11:24:09 11:27:21 15° 299° (WNW) 11:30:14 437.365/2234.400
POLYITAN 1 28 May 11:26:30 11:30:36 44° 72° (ENE) 11:34:45 437.675
UWE-3 28 May 11:28:17 11:32:41 82° 101° (E) 11:36:56 435.000/436.395/437.385
FUNcube-1 28 May 11:34:25 11:38:45 73° 101° (ESE) 11:42:56 145.935
DELFI C3 28 May 11:35:27 11:39:29 78° 284° (WNW) 11:43:30 145.870
CINEMA 3 28 May 11:39:07 11:43:21 33° 291° (WNW) 11:47:21 145.822/145.860
UNISAT 6 28 May 11:39:10 11:43:49 61° 260° (W) 11:48:25 437.425
AISAT 28 May 11:41:36 11:44:59 21° 93° (E) 11:48:28 437.250
HO-68 28 May 11:47:00 11:53:14 33° 298° (WNW) 11:59:19 435.675
NANOSAT C BR1 28 May 11:54:15 11:58:32 89° 78° (ENE) 12:02:52 145.865
SO-50 28 May 11:55:35 12:00:14 38° 49° (NE) 12:04:50 436.795
HUMSAT D 28 May 11:57:42 12:01:49 60° 100° (E) 12:05:53 437.325/437.525
PCSat 28 May 11:59:35 12:03:53 24° 252° (WSW) 12:08:02 145.827
QB50P2 28 May 12:03:25 12:07:42 70° 258° (WSW) 12:12:01 145.880/145.840
CUSAT 1 28 May 12:03:58 12:07:50 15° 79° (E) 12:12:22 437.405
UKube-1 28 May 12:14:11 12:18:34 86° 103° (ESE) 12:22:55 .
POPSAT HIP 1 28 May 12:15:26 12:19:37 52° 260° (W) 12:23:51 437.405
ZACube-1 28 May 12:15:53 12:19:54 37° 289° (WNW) 12:23:47 437.345
DUCHIFAT 1 28 May 12:16:08 12:20:18 52° 260° (W) 12:24:31 145.980
CUBEBUG 2 28 May 12:21:15 12:24:47 23° 292° (WNW) 12:28:07 437.445
RS-15 28 May 12:22:29 12:32:11 33° 329° (NNW) 12:42:01 29.354- 29.394
ANTELSAT 28 May 12:23:48 12:27:30 22° 267° (W) 12:31:03 437.575/2403.000
DX 1 28 May 12:25:10 12:29:34 67° 286° (WNW) 12:33:54 434.975-435.025
Oscar 11 28 May 12:25:44 12:28:46 18° 293° (WNW) 12:31:39 145.826/435.025
BUGSAT 1 28 May 12:32:34 12:36:35 49° 260° (W) 12:40:42 437.445
50 SAT 28 May 12:33:22 12:37:16 90° 14° (NNE) 12:41:07 437.505
CUBEBUG 1 28 May 12:39:02 12:43:18 44° 99° (E) 12:47:33 437.445
Cosmos 2504 28 May 12:40:27 12:47:01 25° 293° (WNW) 12:53:02 435.465 / 435.565
VELOX 1 28 May 12:45:02 12:49:33 83° 284° (WNW) 12:54:01 145.980
ESTCUBE 1 28 May 12:53:44 12:58:18 74° 103° (ESE) 13:02:49 437.505/2401.250
TIGRISAT 28 May 12:59:02 13:00:03 10° 273° (W) 13:00:44 435.000
GONETS M04 28 May 12:59:16 13:06:35 32° 85° (E) 13:14:09
QB50P1 28 May 13:00:56 13:03:52 17° 269° (W) 13:06:41 145.935-145.965
POLYITAN 1 28 May 13:04:01 13:06:47 16° 269° (W) 13:09:24 437.675
SPROUT 28 May 13:12:20 13:16:04 28° 95° (E) 13:19:49 437.525
FUNcube-1 28 May 13:13:18 13:14:30 11° 297° (WNW) 13:15:28 145.935
AISAT 28 May 13:17:33 13:21:42 36° 290° (WNW) 13:25:47 437.250
DANDE 28 May 13:21:35 13:28:22 45° 89° (E) 13:36:18 436.750
Oscar 19 28 May 13:23:41 13:28:10 31° 68° (ENE) 13:32:44 437.125/150
TISAT 1 28 May 13:29:37 13:33:24 31° 96° (E) 13:37:11 437.305
HUMSAT D 28 May 13:35:22 13:37:06 12° 296° (WNW) 13:38:38 437.325/437.525
SO-50 28 May 13:36:23 13:40:40 29° 246° (WSW) 13:44:49 436.795
CUSAT 1 28 May 13:41:48 13:49:14 76° 97° (E) 13:57:37 437.405
ITAMSAT 1 28 May 13:43:15 13:45:56 15° 61° (ENE) 13:48:50 435.822/435.867
CUBEBUG 1 28 May 14:16:14 14:19:21 18° 294° (WNW) 14:22:20 437.445
AO-7 28 May 14:19:24 14:22:56 14° 46° (NE) 14:26:55 29.400- 29.500
Gurwin Techsat 1B 28 May 14:27:51 14:32:34 35° 68° (ENE) 14:37:23 435.225
ESTCUBE 1 28 May 14:32:46 14:34:37 12° 297° (WNW) 14:36:16 437.505/2401.250
RS-15 28 May 14:41:21 14:49:23 21° 3° (N) 14:57:42 29.354- 29.394
SPROUT 28 May 14:48:27 14:52:05 26° 291° (WNW) 14:55:39 437.525
GONETS M04 28 May 14:54:21 15:03:02 57° 284° (WNW) 15:11:43
Oscar 19 28 May 15:02:47 15:07:29 33° 264° (W) 15:12:08 437.125/150
DANDE 28 May 15:04:41 15:11:42 42° 291° (WNW) 15:19:38 436.750
TISAT 1 28 May 15:05:37 15:09:03 23° 292° (WNW) 15:12:22 437.305
ITUPSAT 1 28 May 15:05:42 15:10:22 51° 100° (E) 15:15:03 437.325
